Weather History for PMDY - February, 2014

Change the Weather History Date:

Monday, February 10, 2014

  Actual Average Record
Temperature  
Mean Temperature 62 °F -  
Max Temperature 65 °F - - ()
Min Temperature 59 °F - - ()
Degree Days  
Heating Degree Days 3    
Growing Degree Days 12 (Base 50)    
Moisture  
Dew Point 51 °F    
Average Humidity 67    
Maximum Humidity 75    
Minimum Humidity 52    
Precipitation  
Precipitation 0.00 in - - ()
Sea Level Pressure  
Sea Level Pressure 30.92 in    
Wind  
Wind Speed 15 mph (NE)    
Max Wind Speed 17 mph    
Max Gust Speed 24 mph    
Visibility 10 miles    
Events Rain    
T = Trace of Precipitation, MM = Missing Value Source: NWS Daily Summary

Daily Weather History Graph

Daily Weather History Graph

Search for Another Location

Airport or City:

Trip Planner

Search our weather history database for the weather conditions in past years. The results will help you decide how hot, cold, wet, or windy it might be!

Date:

Astronomy

Feb. 10, 2014 Rise Set
Actual Time 6:30 PM GMT 5:36 AM GMT
Civil Twilight 6:06 PM GMT 6:01 AM GMT
Nautical Twilight 5:39 PM GMT 6:28 AM GMT
Astronomical Twilight 5:11 PM GMT 6:56 AM GMT
Moon 1:36 AM GMT (2/10) 3:27 PM GMT (2/10)
Length of Visible Light 11h 54m
Length of Day
11h 05m
Waxing Gibbous, 83% of the Moon is Illuminated
Feb 10
Waxing Gibbous
Feb 14
Full
Feb 22
Last Quarter
Mar 1
New
Mar 8
First Quarter

Hourly Weather History & Observations

Time (GMT) Temp. Dew Point Humidity Pressure Visibility Wind Dir Wind Speed Gust Speed Precip Events Conditions
12:56 AM 65.8 °F 55.9 °F 70% 30.81 in 9.0 mi ENE 15.0 mph - N/A   Clear
1:56 AM 65.8 °F 55.9 °F 70% 30.81 in 9.0 mi ENE 15.0 mph - N/A   Partly Cloudy
2:56 AM 64.9 °F 54.9 °F 70% 30.80 in 8.0 mi NE 15.0 mph - 0.00 in Rain Light Rain
3:56 AM 64.9 °F 54.0 °F 68% 30.81 in 9.0 mi ENE 16.1 mph - 0.00 in   Partly Cloudy
4:56 AM 63.9 °F 54.0 °F 70% 30.83 in 9.0 mi ENE 17.3 mph 23.0 mph N/A   Clear
5:56 AM 63.0 °F 54.0 °F 72% 30.84 in 10.0 mi ENE 13.8 mph - N/A   Partly Cloudy
6:56 AM 63.0 °F 54.9 °F 75% 30.86 in 9.0 mi ENE 17.3 mph 23.0 mph N/A   Clear
7:56 AM 61.9 °F 54.0 °F 75% 30.89 in 10.0 mi ENE 13.8 mph - N/A   Partly Cloudy
8:56 AM 61.9 °F 54.0 °F 75% 30.90 in 9.0 mi NE 16.1 mph - N/A   Partly Cloudy
9:56 AM 61.9 °F 52.9 °F 72% 30.92 in 10.0 mi ENE 13.8 mph - N/A   Clear
10:56 AM 61.9 °F 52.9 °F 72% 30.92 in 10.0 mi NE 15.0 mph 21.9 mph N/A   Clear
11:56 AM 61.9 °F 52.0 °F 70% 30.92 in 10.0 mi NE 12.7 mph 21.9 mph N/A   Partly Cloudy
12:56 PM 61.0 °F 50.9 °F 69% 30.92 in 10.0 mi NE 15.0 mph 19.6 mph N/A   Partly Cloudy
1:56 PM 61.0 °F 52.0 °F 72% 30.92 in 10.0 mi NE 15.0 mph 21.9 mph N/A   Partly Cloudy
2:56 PM 61.0 °F 50.9 °F 69% 30.91 in 10.0 mi NE 15.0 mph 21.9 mph N/A   Partly Cloudy
3:56 PM 61.0 °F 50.9 °F 69% 30.92 in 10.0 mi NE 15.0 mph 23.0 mph N/A   Mostly Cloudy
4:56 PM 61.0 °F 50.0 °F 67% 30.93 in 10.0 mi NE 13.8 mph 24.2 mph N/A   Mostly Cloudy
5:56 PM 61.0 °F 47.8 °F 62% 30.96 in 10.0 mi NE 15.0 mph 19.6 mph N/A   Overcast
6:56 PM 59.9 °F 46.9 °F 62% 30.98 in 10.0 mi NE 13.8 mph 23.0 mph N/A   Clear
7:56 PM 61.9 °F 47.8 °F 60% 31.02 in 10.0 mi NE 12.7 mph - N/A   Partly Cloudy
8:56 PM 63.0 °F 46.9 °F 56% 31.03 in 10.0 mi NE 12.7 mph 21.9 mph N/A   Scattered Clouds
9:56 PM 63.9 °F 46.9 °F 54% 31.05 in 10.0 mi NE 10.4 mph 20.7 mph N/A   Mostly Cloudy
10:56 PM 63.9 °F 47.8 °F 56% 31.05 in 10.0 mi NE 13.8 mph 19.6 mph N/A   Mostly Cloudy
11:56 PM 64.9 °F 46.9 °F 52% 31.03 in 10.0 mi NE 13.8 mph 21.9 mph N/A   Mostly Cloudy